TimePST,TemperatureF,Dew PointF,Humidity,Sea Level PressureIn,VisibilityMPH,Wind Direction,Wind SpeedMPH,Gust SpeedMPH,PrecipitationIn,Events,Conditions,WindDirDegrees,DateUTC
12:15 AM,46.4,26.6,46,30.32,10.0,Calm,Calm,-,N/A,,Clear,0,2013-12-17 08:15:00
12:35 AM,44.6,26.6,49,30.32,10.0,Calm,Calm,-,N/A,,Clear,0,2013-12-17 08:35:00
12:55 AM,48.2,26.6,43,30.32,10.0,Calm,Calm,-,N/A,,Clear,0,2013-12-17 08:55:00
1:15 AM,46.4,26.6,46,30.33,10.0,Calm,Calm,-,N/A,,Clear,0,2013-12-17 09:15:00
1:35 AM,42.8,26.6,53,30.32,10.0,Calm,Calm,-,N/A,,Clear,0,2013-12-17 09:35:00
1:55 AM,42.8,26.6,53,30.33,10.0,Calm,Calm,-,N/A,,Clear,0,2013-12-17 09:55:00
2:15 AM,46.4,26.6,46,30.33,10.0,Calm,Calm,-,N/A,,Clear,0,2013-12-17 10:15:00
2:35 AM,46.4,26.6,46,30.33,10.0,Calm,Calm,-,N/A,,Clear,0,2013-12-17 10:35:00
2:55 AM,46.4,26.6,46,30.32,10.0,Calm,Calm,-,N/A,,Clear,0,2013-12-17 10:55:00
3:15 AM,50.0,24.8,37,30.32,10.0,Calm,Calm,-,N/A,,Clear,0,2013-12-17 11:15:00
3:35 AM,44.6,26.6,49,30.32,10.0,Calm,Calm,-,N/A,,Clear,0,2013-12-17 11:35:00
3:55 AM,41.0,28.4,61,30.31,10.0,Calm,Calm,-,N/A,,Clear,0,2013-12-17 11:55:00
4:15 AM,44.6,26.6,49,30.31,10.0,Calm,Calm,-,N/A,,Clear,0,2013-12-17 12:15:00
4:35 AM,39.2,26.6,61,30.32,10.0,Calm,Calm,-,N/A,,Clear,0,2013-12-17 12:35:00
4:55 AM,37.4,26.6,65,30.31,10.0,Calm,Calm,-,N/A,,Clear,0,2013-12-17 12:55:00
5:15 AM,46.4,26.6,46,30.32,10.0,Calm,Calm,-,N/A,,Clear,0,2013-12-17 13:15:00
5:35 AM,42.8,26.6,53,30.33,10.0,Calm,Calm,-,N/A,,Clear,0,2013-12-17 13:35:00
5:55 AM,41.0,26.6,57,30.33,10.0,Calm,Calm,-,N/A,,Clear,0,2013-12-17 13:55:00
6:15 AM,42.8,26.6,53,30.33,10.0,Calm,Calm,-,N/A,,Clear,0,2013-12-17 14:15:00
6:35 AM,42.8,24.8,49,30.33,10.0,Calm,Calm,-,N/A,,Clear,0,2013-12-17 14:35:00
6:55 AM,44.6,26.6,49,30.33,10.0,Calm,Calm,-,N/A,,Clear,0,2013-12-17 14:55:00
7:15 AM,44.6,26.6,49,30.34,10.0,Calm,Calm,-,N/A,,Clear,0,2013-12-17 15:15:00
7:35 AM,44.6,26.6,49,30.34,10.0,Calm,Calm,-,N/A,,Clear,0,2013-12-17 15:35:00
7:55 AM,42.8,28.4,57,30.34,10.0,Calm,Calm,-,N/A,,Clear,0,2013-12-17 15:55:00
8:15 AM,46.4,28.4,50,30.34,10.0,Calm,Calm,-,N/A,,Clear,0,2013-12-17 16:15:00
8:35 AM,46.4,28.4,50,30.35,10.0,Calm,Calm,-,N/A,,Clear,0,2013-12-17 16:35:00
8:55 AM,48.2,28.4,46,30.35,10.0,Calm,Calm,-,N/A,,Clear,0,2013-12-17 16:55:00
9:15 AM,53.6,30.2,41,30.35,10.0,Calm,Calm,-,N/A,,Clear,0,2013-12-17 17:15:00
9:35 AM,53.6,28.4,38,30.35,10.0,SW,6.9,-,N/A,,Clear,230,2013-12-17 17:35:00
9:55 AM,55.4,28.4,36,30.34,10.0,SW,4.6,-,N/A,,Clear,220,2013-12-17 17:55:00
10:15 AM,60.8,24.8,25,30.34,10.0,WNW,5.8,-,N/A,,Clear,300,2013-12-17 18:15:00
10:35 AM,59.0,24.8,27,30.33,10.0,ENE,3.5,-,N/A,,Clear,70,2013-12-17 18:35:00
10:55 AM,60.8,24.8,25,30.31,10.0,Calm,Calm,-,N/A,,Clear,0,2013-12-17 18:55:00
11:15 AM,60.8,28.4,29,30.30,10.0,Calm,Calm,-,N/A,,Clear,0,2013-12-17 19:15:00
11:35 AM,60.8,28.4,29,30.28,10.0,Calm,Calm,-,N/A,,Clear,0,2013-12-17 19:35:00
11:55 AM,62.6,24.8,24,30.27,10.0,Calm,Calm,-,N/A,,Clear,0,2013-12-17 19:55:00
12:15 PM,62.6,24.8,24,30.26,10.0,NW,10.4,16.1,N/A,,Clear,310,2013-12-17 20:15:00
12:35 PM,64.4,24.8,22,30.25,10.0,NNW,4.6,12.7,N/A,,Clear,340,2013-12-17 20:35:00
12:55 PM,64.4,23.0,21,30.24,10.0,Variable,3.5,-,N/A,,Clear,0,2013-12-17 20:55:00
1:15 PM,64.4,23.0,21,30.23,10.0,WNW,6.9,-,N/A,,Clear,300,2013-12-17 21:15:00
1:35 PM,64.4,23.0,21,30.22,10.0,WNW,4.6,-,N/A,,Clear,290,2013-12-17 21:35:00
1:55 PM,64.4,23.0,21,30.21,10.0,WNW,5.8,-,N/A,,Clear,300,2013-12-17 21:55:00
2:15 PM,64.4,24.8,22,30.21,10.0,Calm,Calm,-,N/A,,Clear,0,2013-12-17 22:15:00
2:35 PM,64.4,24.8,22,30.21,10.0,Calm,Calm,-,N/A,,Clear,0,2013-12-17 22:35:00
2:55 PM,64.4,26.6,24,30.21,10.0,Calm,Calm,-,N/A,,Clear,0,2013-12-17 22:55:00
3:15 PM,64.4,26.6,24,30.20,10.0,Calm,Calm,-,N/A,,Clear,0,2013-12-17 23:15:00
3:35 PM,64.4,26.6,24,30.20,10.0,Calm,Calm,-,N/A,,Clear,0,2013-12-17 23:35:00
3:55 PM,62.6,26.6,26,30.19,10.0,Calm,Calm,-,N/A,,Clear,0,2013-12-17 23:55:00
4:15 PM,59.0,32.0,36,30.19,10.0,Calm,Calm,-,N/A,,Clear,0,2013-12-18 00:15:00
4:35 PM,57.2,30.2,36,30.19,10.0,Calm,Calm,-,N/A,,Clear,0,2013-12-18 00:35:00
4:55 PM,53.6,30.2,41,30.18,10.0,Calm,Calm,-,N/A,,Clear,0,2013-12-18 00:55:00
5:15 PM,53.6,30.2,41,30.19,10.0,Calm,Calm,-,N/A,,Clear,0,2013-12-18 01:15:00
5:35 PM,55.4,24.8,31,30.19,10.0,North,3.5,-,N/A,,Clear,360,2013-12-18 01:35:00
5:55 PM,53.6,28.4,38,30.19,10.0,NNW,5.8,-,N/A,,Clear,340,2013-12-18 01:55:00
6:15 PM,55.4,26.6,33,30.19,10.0,North,6.9,-,N/A,,Clear,350,2013-12-18 02:15:00
6:35 PM,55.4,26.6,33,30.19,10.0,NNW,5.8,-,N/A,,Clear,330,2013-12-18 02:35:00
6:55 PM,53.6,26.6,35,30.19,10.0,WNW,6.9,-,N/A,,Clear,300,2013-12-18 02:55:00
7:15 PM,53.6,24.8,33,30.19,10.0,Calm,Calm,-,N/A,,Clear,0,2013-12-18 03:15:00
7:35 PM,50.0,28.4,43,30.18,10.0,Calm,Calm,-,N/A,,Clear,0,2013-12-18 03:35:00
7:55 PM,51.8,24.8,35,30.19,10.0,Calm,Calm,-,N/A,,Clear,0,2013-12-18 03:55:00
8:15 PM,51.8,28.4,41,30.18,10.0,Calm,Calm,-,N/A,,Clear,0,2013-12-18 04:15:00
8:35 PM,50.0,28.4,43,30.19,10.0,Calm,Calm,-,N/A,,Clear,0,2013-12-18 04:35:00
8:55 PM,48.2,28.4,46,30.19,10.0,Calm,Calm,-,N/A,,Clear,0,2013-12-18 04:55:00
9:15 PM,50.0,28.4,43,30.18,10.0,Calm,Calm,-,N/A,,Clear,0,2013-12-18 05:15:00
9:35 PM,48.2,30.2,50,30.18,10.0,Calm,Calm,-,N/A,,Clear,0,2013-12-18 05:35:00
9:55 PM,48.2,28.4,46,30.18,10.0,Calm,Calm,-,N/A,,Clear,0,2013-12-18 05:55:00
10:15 PM,46.4,28.4,50,30.18,10.0,Calm,Calm,-,N/A,,Clear,0,2013-12-18 06:15:00
10:35 PM,48.2,30.2,50,30.17,10.0,Calm,Calm,-,N/A,,Clear,0,2013-12-18 06:35:00
10:55 PM,48.2,28.4,46,30.17,10.0,Calm,Calm,-,N/A,,Clear,0,2013-12-18 06:55:00
11:15 PM,46.4,28.4,50,30.16,10.0,Calm,Calm,-,N/A,,Clear,0,2013-12-18 07:15:00
11:35 PM,46.4,28.4,50,30.15,10.0,Calm,Calm,-,N/A,,Clear,0,2013-12-18 07:35:00
11:55 PM,46.4,28.4,50,30.15,10.0,Calm,Calm,-,N/A,,Clear,0,2013-12-18 07:55:00